| time (UTC) | temp F | wind direction | speed MPH | gust MPH | rain 1hr in | rain 24hr in | rain mn in | humidity % | barometer mb |
| 20260831103028 | 70 | 128 | 7.0 | 10.0 | 0.03 | 0.06 | 0.05 | 96 | 1009.1 |
| 20260831101524 | 69 | 132 | 3.0 | 7.0 | 0.04 | 0.06 | 0.05 | 96 | 1009.5 |
| 20260831100026 | 69 | 111 | 0.0 | 3.0 | 0.04 | 0.06 | 0.05 | 96 | 1009.7 |
| 20260831094521 | 69 | 138 | 0.0 | 0.0 | 0.04 | 0.06 | 0.05 | 96 | 1010.0 |
| 20260831093020 | 69 | 138 | 0.0 | 0.0 | 0.01 | 0.03 | 0.02 | 96 | 1010.3 |
| 20260831091520 | 69 | 138 | 0.0 | 3.0 | 0.00 | 0.02 | 0.01 | 96 | 1010.3 |
| 20260831090019 | 69 | 149 | 0.0 | 2.0 | 0.00 | 0.02 | 0.01 | 96 | 1010.0 |
| 20260831084524 | 69 | 149 | 0.0 | 0.0 | 0.00 | 0.02 | 0.01 | 96 | 1010.2 |
| 20260831083018 | 69 | 149 | 0.0 | 3.0 | 0.00 | 0.02 | 0.01 | 96 | 1010.3 |
| 20260831081517 | 69 | 150 | 0.0 | 2.0 | 0.00 | 0.02 | 0.01 | 96 | 1010.2 |
| 20260831080018 | 69 | 168 | 0.0 | 2.0 | 0.00 | 0.02 | 0.01 | 96 | 1010.3 |
| 20260831074515 | 69 | 168 | 0.0 | 3.0 | 0.00 | 0.02 | 0.01 | 96 | 1010.1 |
| 20260831073014 | 69 | 184 | 0.0 | 2.0 | 0.00 | 0.02 | 0.01 | 96 | 1010.4 |
| 20260831071512 | 69 | 191 | 0.0 | 3.0 | 0.00 | 0.02 | 0.01 | 95 | 1010.3 |
| 20260831070010 | 70 | 200 | 0.0 | 2.0 | 0.01 | 0.04 | 0.01 | 95 | 1010.7 |
| 20260831064506 | 70 | 200 | 0.0 | 0.0 | 0.01 | 0.04 | 0.01 | 95 | 1011.1 |
| 20260831063002 | 70 | 202 | 0.0 | 4.0 | 0.01 | 0.04 | 0.01 | 95 | 1011.7 |
| 20260831061501 | 70 | 134 | 0.0 | 0.0 | 0.01 | 0.04 | 0.01 | 95 | 1011.8 |
| 20260831060001 | 70 | 133 | 0.0 | 1.0 | 0.00 | 0.03 | 0.00 | 94 | 1011.9 |
| 20260831054502 | 70 | 133 | 0.0 | 0.0 | 0.00 | 0.03 | 0.00 | 94 | 1012.0 |
| 20260831053131 | 70 | 133 | 0.0 | 0.0 | 0.00 | 0.03 | 0.00 | 93 | 1011.9 |
| 20260831051604 | 70 | 133 | 0.0 | 0.0 | 0.00 | 0.03 | 0.00 | 93 | 1012.0 |
| 20260831050056 | 70 | 133 | 0.0 | 0.0 | 0.01 | 0.03 | 0.03 | 93 | 1011.9 |
| 20260831044559 | 71 | 133 | 0.0 | 0.0 | 0.01 | 0.03 | 0.03 | 92 | 1011.9 |
| 20260831043054 | 71 | 133 | 0.0 | 0.0 | 0.01 | 0.03 | 0.03 | 92 | 1011.4 |
| 20260831041601 | 71 | 133 | 0.0 | 0.0 | 0.01 | 0.03 | 0.03 | 92 | 1011.2 |
| 20260831040054 | 71 | 133 | 0.0 | 2.0 | 0.00 | 0.02 | 0.02 | 91 | 1011.2 |
| 20260831034555 | 71 | 133 | 0.0 | 0.0 | 0.00 | 0.02 | 0.02 | 90 | 1011.5 |
| 20260831033106 | 71 | 133 | 0.0 | 3.0 | 0.00 | 0.02 | 0.02 | 90 | 1011.4 |
| 20260831031553 | 72 | 133 | 0.0 | 1.0 | 0.00 | 0.02 | 0.02 | 90 | 1011.5 |
| 20260831030052 | 71 | 133 | 0.0 | 3.0 | 0.00 | 0.02 | 0.02 | 90 | 1011.2 |
| 20260831024551 | 72 | 132 | 0.0 | 2.0 | 0.00 | 0.02 | 0.02 | 89 | 1011.2 |
| 20260831023050 | 72 | 132 | 2.0 | 4.0 | 0.00 | 0.02 | 0.02 | 88 | 1011.1 |
| 20260831021550 | 72 | 134 | 1.0 | 5.0 | 0.00 | 0.02 | 0.02 | 88 | 1011.0 |
| 20260831020106 | 72 | 132 | 3.0 | 5.0 | 0.00 | 0.02 | 0.02 | 87 | 1010.8 |
| 20260831014549 | 72 | 126 | 2.0 | 4.0 | 0.00 | 0.02 | 0.02 | 86 | 1010.8 |
| 20260831013048 | 72 | 28 | 0.0 | 2.0 | 0.00 | 0.02 | 0.02 | 85 | 1011.0 |
| 20260831011548 | 73 | 27 | 0.0 | 0.0 | 0.00 | 0.02 | 0.02 | 86 | 1011.1 |
| 20260831010049 | 74 | 27 | 0.0 | 0.0 | 0.00 | 0.02 | 0.02 | 86 | 1010.8 |
| 20260831004553 | 74 | 27 | 0.0 | 0.0 | 0.00 | 0.02 | 0.02 | 85 | 1010.6 |
| 20260831003047 | 75 | 27 | 0.0 | 2.0 | 0.00 | 0.02 | 0.02 | 85 | 1010.5 |
| 20260831001546 | 75 | 27 | 0.0 | 1.0 | 0.00 | 0.02 | 0.02 | 84 | 1010.5 |
| 20260831000047 | 76 | 27 | 0.0 | 1.0 | 0.00 | 0.02 | 0.02 | 82 | 1010.4 |
| 20260830234544 | 76 | 27 | 0.0 | 2.0 | 0.00 | 0.02 | 0.02 | 82 | 1010.3 |
| 20260830233046 | 76 | 27 | 0.0 | 1.0 | 0.00 | 0.02 | 0.02 | 80 | 1010.2 |
| 20260830231545 | 77 | 27 | 0.0 | 2.0 | 0.00 | 0.02 | 0.02 | 79 | 1010.1 |
| 20260830230043 | 77 | 26 | 0.0 | 4.0 | 0.00 | 0.02 | 0.02 | 78 | 1010.1 |
| 20260830224543 | 77 | 44 | 0.0 | 6.0 | 0.00 | 0.02 | 0.02 | 77 | 1010.0 |
| 20260830223041 | 77 | 11 | 0.0 | 3.0 | 0.00 | 0.02 | 0.02 | 77 | 1009.7 |
| 20260830221543 | 77 | 41 | 0.0 | 1.0 | 0.00 | 0.02 | 0.02 | 77 | 1009.3 |
| 20260830220046 | 77 | 22 | 0.0 | 3.0 | 0.00 | 0.02 | 0.02 | 77 | 1009.4 |
| 20260830214540 | 77 | 22 | 0.0 | 4.0 | 0.00 | 0.02 | 0.02 | 76 | 1009.9 |
| 20260830213039 | 77 | 83 | 1.0 | 7.0 | 0.00 | 0.02 | 0.02 | 76 | 1009.6 |
| 20260830211537 | 78 | 355 | 0.0 | 3.0 | 0.00 | 0.02 | 0.02 | 77 | 1009.6 |
| 20260830210036 | 78 | 76 | 0.0 | 3.0 | 0.00 | 0.02 | 0.02 | 75 | 1009.7 |
| 20260830204536 | 79 | 82 | 0.0 | 4.0 | 0.00 | 0.02 | 0.02 | 72 | 1010.2 |
| 20260830203039 | 80 | 325 | 0.0 | 4.0 | 0.00 | 0.02 | 0.02 | 70 | 1010.2 |
| 20260830201534 | 81 | 243 | 0.0 | 2.0 | 0.00 | 0.02 | 0.02 | 67 | 1010.1 |
| 20260830200034 | 82 | 160 | 0.0 | 5.0 | 0.00 | 0.02 | 0.02 | 65 | 1010.3 |
| 20260830194535 | 82 | 288 | 1.0 | 4.0 | 0.00 | 0.02 | 0.02 | 64 | 1010.2 |
| 20260830193033 | 82 | 292 | 2.0 | 6.0 | 0.00 | 0.02 | 0.02 | 65 | 1010.3 |
| 20260830191539 | 82 | 344 | 2.0 | 4.0 | 0.00 | 0.02 | 0.02 | 64 | 1010.4 |
| 20260830190031 | 82 | 286 | 0.0 | 4.0 | 0.00 | 0.03 | 0.02 | 63 | 1010.2 |
| 20260830184531 | 84 | 234 | 1.0 | 6.0 | 0.00 | 0.03 | 0.02 | 61 | 1010.0 |
| 20260830183029 | 84 | 338 | 1.0 | 4.0 | 0.00 | 0.03 | 0.02 | 60 | 1009.8 |
| 20260830181528 | 83 | 291 | 0.0 | 5.0 | 0.00 | 0.03 | 0.02 | 61 | 1009.6 |
| 20260830180026 | 84 | 193 | 1.0 | 6.0 | 0.00 | 0.03 | 0.02 | 61 | 1009.6 |
| 20260830174525 | 83 | 236 | 0.0 | 4.0 | 0.00 | 0.03 | 0.02 | 62 | 1009.9 |
| 20260830173021 | 82 | 184 | 0.0 | 4.0 | 0.00 | 0.03 | 0.02 | 63 | 1009.8 |
| 20260830171519 | 82 | 304 | 3.0 | 11.0 | 0.00 | 0.03 | 0.02 | 63 | 1009.9 |
| 20260830170035 | 81 | 298 | 2.0 | 6.0 | 0.00 | 0.03 | 0.02 | 65 | 1009.9 |
| 20260830164514 | 80 | 240 | 3.0 | 8.0 | 0.00 | 0.03 | 0.02 | 65 | 1010.2 |
| 20260830163013 | 80 | 201 | 0.0 | 3.0 | 0.00 | 0.03 | 0.02 | 65 | 1010.1 |
| 20260830161509 | 80 | 304 | 1.0 | 6.0 | 0.00 | 0.03 | 0.02 | 66 | 1010.5 |
| 20260830160006 | 79 | 215 | 1.0 | 5.0 | 0.00 | 0.03 | 0.02 | 70 | 1010.7 |
| 20260830154504 | 78 | 204 | 1.0 | 4.0 | 0.00 | 0.03 | 0.02 | 71 | 1010.5 |
| 20260830153058 | 77 | 194 | 0.0 | 2.0 | 0.00 | 0.03 | 0.02 | 74 | 1010.5 |
| 20260830150031 | 76 | 198 | 0.0 | 4.0 | 0.00 | 0.03 | 0.02 | 77 | 1010.7 |
| 20260830144531 | 75 | 200 | 0.0 | 6.0 | 0.00 | 0.03 | 0.02 | 78 | 1010.6 |
| 20260830143027 | 74 | 207 | 0.0 | 6.0 | 0.00 | 0.03 | 0.02 | 79 | 1010.3 |
| 20260830141524 | 74 | 202 | 0.0 | 5.0 | 0.00 | 0.03 | 0.02 | 80 | 1010.3 |
| 20260830140025 | 73 | 203 | 0.0 | 4.0 | 0.00 | 0.03 | 0.02 | 83 | 1010.8 |
| 20260830134515 | 72 | 94 | 0.0 | 4.0 | 0.00 | 0.03 | 0.02 | 84 | 1010.7 |
| 20260830133023 | 71 | 198 | 0.0 | 0.0 | 0.00 | 0.03 | 0.02 | 86 | 1010.8 |
| 20260830131511 | 70 | 165 | 0.0 | 2.0 | 0.00 | 0.03 | 0.02 | 86 | 1011.1 |
| 20260830130010 | 69 | 152 | 0.0 | 1.0 | 0.00 | 0.03 | 0.02 | 87 | 1010.8 |
| 20260830124509 | 69 | 152 | 0.0 | 1.0 | 0.00 | 0.03 | 0.02 | 88 | 1010.9 |
| 20260830123009 | 69 | 152 | 0.0 | 0.0 | 0.00 | 0.03 | 0.02 | 89 | 1011.0 |
| 20260830121508 | 68 | 157 | 0.0 | 2.0 | 0.00 | 0.03 | 0.02 | 90 | 1010.8 |
| 20260830120009 | 68 | 157 | 1.0 | 5.0 | 0.00 | 0.03 | 0.02 | 90 | 1010.8 |
| 20260830114508 | 68 | 157 | 0.0 | 3.0 | 0.00 | 0.03 | 0.02 | 90 | 1010.6 |
| 20260830113007 | 68 | 158 | 1.0 | 5.0 | 0.00 | 0.03 | 0.02 | 90 | 1010.4 |
| 20260830111506 | 68 | 165 | 0.0 | 3.0 | 0.00 | 0.03 | 0.02 | 90 | 1010.5 |
| 20260830110006 | 68 | 165 | 0.0 | 3.0 | 0.00 | 0.03 | 0.02 | 90 | 1010.3 |
| 20260830104504 | 68 | 165 | 0.0 | 2.0 | 0.00 | 0.03 | 0.02 | 89 | 1010.3 |